This demonstration page uses our WeatherBlox Daily Observations layout. Learn more.

Left ArrowRight Arrow

Hourly Observations for September 19, 2020

Temp ( °F °C ) Dew Point ( °F °C ) Humidity (%) Winds ( mph kmh ) Pressure ( in mb ) Visibility ( mi km ) Precip ( " mm )
12:52 am 00:52 Partly Cloudy 57 13.9 46 7.8 67 67 SSE 7 11 30.25 1025 10 16 0.00 0.00
1:52 am 01:52 Cloudy 58 14.4 47 8.3 67 67 SE 7 11 30.25 1024 10 16 0.00 0.00
2:52 am 02:52 Cloudy 58 14.4 48 8.9 70 70 SE 9 15 30.24 1024 10 16 0.00 0.00
3:52 am 03:52 Cloudy 59 15 49 9.4 69 69 SSE 8 13 30.23 1024 10 16 0.00 0.00
4:52 am 04:52 Cloudy 59 15 50 10 72 72 SSE 8 13 30.23 1024 10 16 0.00 0.00
5:52 am 05:52 Mostly Cloudy 58 14.4 50 10 75 75 SSE 8 13 30.22 1023 10 16 0.00 0.00
6:52 am 06:52 Mostly Cloudy 58 14.4 51 10.6 78 78 SSE 12 19 30.22 1023 10 16 0.00 0.00
7:52 am 07:52 Mostly Sunny 57 13.9 51 10.6 81 81 SSE 12 19 30.23 1024 10 16 0.00 0.00
8:52 am 08:52 Mostly Sunny 59 15 51 10.6 75 75 S 15 24 30.23 1024 10 16 0.00 0.00
9:52 am 09:52 Mostly Sunny 62 16.7 50 10 65 65 S 18 30 30.23 1024 10 16 0.00 0.00
10:52 am 10:52 Sunny 65 18.3 50 10 59 59 S 21 33 30.23 1024 10 16 0.00 0.00
11:52 am 11:52 Mostly Cloudy 68 20 50 10 53 53 S 20 31 30.22 1023 10 16 0.00 0.00
12:52 pm 12:52 Mostly Cloudy 71 21.7 51 10.6 49 49 SSE 21 33 30.19 1022 10 16 0.00 0.00
1:52 pm 13:52 Mostly Cloudy 72 22.2 51 10.6 48 48 SSE 20 31 30.16 1021 10 16 0.00 0.00
2:52 pm 14:52 Cloudy 73 22.8 51 10.6 46 46 SSE 24 39 30.14 1021 10 16 0.00 0.00
3:52 pm 15:52 Cloudy 73 22.8 51 10.6 46 46 SSE 23 37 30.11 1020 10 16 0.00 0.00
4:52 pm 16:52 Cloudy 73 22.8 51 10.6 46 46 SSE 17 28 30.10 1019 10 16 0.00 0.00
5:52 pm 17:52 Cloudy 72 22.2 51 10.6 48 48 SSE 21 33 30.11 1020 10 16 0.00 0.00
6:52 pm 18:52 Cloudy 69 20.6 50 10 51 51 SSE 18 30 30.10 1019 10 16 0.00 0.00
7:52 pm 19:52 Cloudy 67 19.4 50 10 55 55 SSE 15 24 30.11 1020 10 16 0.00 0.00
8:52 pm 20:52 Cloudy 65 18.3 50 10 59 59 SSE 17 28 30.12 1020 10 16 0.00 0.00
9:52 pm 21:52 Cloudy 63 17.2 50 10 63 63 SSE 15 24 30.14 1021 10 16 0.00 0.00
10:52 pm 22:52 Mostly Cloudy 61 16.1 51 10.6 70 70 SSE 14 22 30.14 1021 10 16 0.00 0.00
11:52 pm 23:52 Mostly Cloudy 60 15.6 51 10.6 72 72 SSE 13 20 30.15 1021 10 16 0.00 0.00

Powered by AerisWeather